EZY412 EGAA-EGJJ

Flight info

Callsign EZY412
Flight time N/A
Altitude 39000
Route LISBO DCT RINGA Q39 ETIGA DCT INKOB Q39 NOMSU UQ4 WAL N862 KARNO/N0447F380 DCT ALHUP DCT ABWIV DCT PACSE DCT DAWLY/N0396F230 N864 ABBEW N90 ENHEL N862 SKERY
Aircraft A20N/M-SDE2E3FGHIRWXY/LB1

Departure

Time 2026-04-30 20:48
Airport Belfast International Airport (EGAA)

Arrival

Time N/A
Airport Jersey Airport (EGJJ)
Time Latitude Longitude Altitude Speed Heading
2026-04-30 20:13 54.65993 -6.21783 241 ft 0 kts 245°
2026-04-30 20:39 54.65998 -6.21762 241 ft 4 kts 249°
2026-04-30 20:39 54.66007 -6.21718 242 ft 4 kts 258°
2026-04-30 20:39 54.66010 -6.21672 243 ft 4 kts 274°
2026-04-30 20:40 54.65997 -6.21621 244 ft 0 kts 334°
2026-04-30 20:42 54.66002 -6.21621 244 ft 1 kts 359°
2026-04-30 20:42 54.65928 -6.21612 245 ft 16 kts 229°
2026-04-30 20:43 54.65867 -6.21818 242 ft 22 kts 247°
2026-04-30 20:43 54.65799 -6.22092 236 ft 27 kts 248°
2026-04-30 20:43 54.65759 -6.22434 227 ft 32 kts 262°
2026-04-30 20:44 54.65597 -6.23151 221 ft 29 kts 236°
2026-04-30 20:44 54.65460 -6.23371 220 ft 17 kts 202°
2026-04-30 20:44 54.65443 -6.23383 221 ft 0 kts 202°
2026-04-30 20:45 54.65420 -6.23398 227 ft 10 kts 199°
2026-04-30 20:45 54.65370 -6.23399 219 ft 2 kts 160°
2026-04-30 20:45 54.65353 -6.23386 227 ft 11 kts 156°
2026-04-30 20:46 54.65247 -6.23481 216 ft 4 kts 166°
2026-04-30 20:46 54.65246 -6.23447 216 ft 3 kts 69°
2026-04-30 20:47 54.65401 -6.22869 227 ft 79 kts 65°
2026-04-30 20:47 54.65716 -6.21700 240 ft 132 kts 65°
2026-04-30 20:48 54.66549 -6.18537 1545 ft 146 kts 71°
2026-04-30 20:48 54.66968 -6.16953 2333 ft 143 kts 73°
2026-04-30 20:48 54.67411 -6.15301 2712 ft 160 kts 72°
2026-04-30 20:48 54.67873 -6.13454 3087 ft 177 kts 81°
2026-04-30 20:49 54.67827 -6.11312 3516 ft 185 kts 115°
2026-04-30 20:49 54.66972 -6.09644 4076 ft 192 kts 152°
2026-04-30 20:49 54.65609 -6.09114 4580 ft 217 kts 176°
2026-04-30 20:50 54.62296 -6.09118 6011 ft 250 kts 179°
2026-04-30 20:50 54.60537 -6.09146 7006 ft 254 kts 179°
2026-04-30 20:50 54.58799 -6.09146 8030 ft 255 kts 179°
2026-04-30 20:50 54.56969 -6.09122 9152 ft 256 kts 178°
2026-04-30 20:51 54.55174 -6.09074 10191 ft 258 kts 175°
2026-04-30 20:51 54.51847 -6.06124 11201 ft 304 kts 131°
2026-04-30 20:51 54.50804 -6.02852 11723 ft 325 kts 117°
2026-04-30 20:52 54.49958 -5.99200 12569 ft 331 kts 116°
2026-04-30 20:52 54.49129 -5.95467 13402 ft 336 kts 116°
2026-04-30 20:52 54.47377 -5.87893 15018 ft 343 kts 117°
2026-04-30 20:53 54.46789 -5.85438 15519 ft 346 kts 117°
2026-04-30 20:53 54.45554 -5.80346 16564 ft 350 kts 117°
2026-04-30 20:53 54.44607 -5.76473 17314 ft 353 kts 117°
2026-04-30 20:54 54.42999 -5.69917 18562 ft 360 kts 117°
2026-04-30 20:54 54.42019 -5.65928 19221 ft 363 kts 117°
2026-04-30 20:54 54.41037 -5.61933 19870 ft 366 kts 117°
2026-04-30 20:55 54.38685 -5.54171 21120 ft 368 kts 128°
2026-04-30 20:55 54.37207 -5.50564 21757 ft 371 kts 129°
2026-04-30 20:55 54.35680 -5.46948 22359 ft 373 kts 134°
2026-04-30 20:56 54.32154 -5.40383 23546 ft 380 kts 136°
2026-04-30 20:56 54.30323 -5.37057 24074 ft 383 kts 136°
2026-04-30 20:56 54.26666 -5.30359 25115 ft 388 kts 136°
2026-04-30 20:57 54.24846 -5.27011 25602 ft 391 kts 136°
2026-04-30 20:57 54.22951 -5.23525 26099 ft 394 kts 136°
2026-04-30 20:57 54.21079 -5.20084 26570 ft 397 kts 136°
2026-04-30 20:58 54.17291 -5.13141 27486 ft 403 kts 136°
2026-04-30 20:58 54.15341 -5.09575 27923 ft 406 kts 136°
2026-04-30 20:58 54.13403 -5.06036 28335 ft 409 kts 136°
2026-04-30 20:58 54.11438 -5.02454 28749 ft 412 kts 136°
2026-04-30 20:59 54.07512 -4.95312 29509 ft 417 kts 136°
2026-04-30 20:59 54.05503 -4.91665 29881 ft 420 kts 136°
2026-04-30 21:00 54.01490 -4.84397 30572 ft 425 kts 136°
2026-04-30 21:00 53.97405 -4.77021 31240 ft 430 kts 136°
2026-04-30 21:01 53.93316 -4.69660 32076 ft 429 kts 136°
2026-04-30 21:01 53.91272 -4.65987 32524 ft 428 kts 136°
2026-04-30 21:01 53.87156 -4.58611 33339 ft 427 kts 136°
2026-04-30 21:02 53.85103 -4.54942 33752 ft 426 kts 136°
2026-04-30 21:02 53.83091 -4.51351 34127 ft 426 kts 136°
2026-04-30 21:02 53.81056 -4.47723 34434 ft 426 kts 136°
2026-04-30 21:02 53.79008 -4.44078 34735 ft 426 kts 136°
2026-04-30 21:03 53.76953 -4.40427 35004 ft 426 kts 136°
2026-04-30 21:03 53.74903 -4.36789 35317 ft 426 kts 136°
2026-04-30 21:03 53.72846 -4.33146 35598 ft 426 kts 136°
2026-04-30 21:03 53.70799 -4.29524 35870 ft 426 kts 136°
2026-04-30 21:04 53.68779 -4.25957 36131 ft 426 kts 136°
2026-04-30 21:04 53.66762 -4.22401 36389 ft 426 kts 136°
2026-04-30 21:04 53.62647 -4.15159 36891 ft 426 kts 136°
2026-04-30 21:05 53.60585 -4.11538 37127 ft 426 kts 136°
2026-04-30 21:05 53.58590 -4.08041 37361 ft 426 kts 136°
2026-04-30 21:05 53.56532 -4.04439 37593 ft 426 kts 136°
2026-04-30 21:05 53.54465 -4.00825 37837 ft 426 kts 136°
2026-04-30 21:06 53.52425 -3.97265 38039 ft 426 kts 136°
2026-04-30 21:06 53.50392 -3.93722 38249 ft 426 kts 136°
2026-04-30 21:06 53.48401 -3.90258 38435 ft 427 kts 136°
2026-04-30 21:06 53.46333 -3.86665 38647 ft 426 kts 136°
2026-04-30 21:07 53.44318 -3.83169 38827 ft 426 kts 136°
2026-04-30 21:07 53.42398 -3.79842 38964 ft 427 kts 136°
2026-04-30 21:07 53.40260 -3.76145 39091 ft 427 kts 136°
2026-04-30 21:07 53.38516 -3.73134 39139 ft 428 kts 136°
2026-04-30 21:08 53.34350 -3.65955 39143 ft 427 kts 136°
2026-04-30 21:08 53.30240 -3.58891 39145 ft 427 kts 136°
2026-04-30 21:09 53.26089 -3.51778 39149 ft 427 kts 136°
2026-04-30 21:09 53.21971 -3.44739 39149 ft 427 kts 136°
2026-04-30 21:10 53.17834 -3.37689 39156 ft 427 kts 136°
2026-04-30 21:10 53.13729 -3.30713 39153 ft 427 kts 136°
2026-04-30 21:11 53.09677 -3.23849 39154 ft 427 kts 136°
2026-04-30 21:11 53.05455 -3.16717 39161 ft 427 kts 136°
2026-04-30 21:12 53.01275 -3.09677 39159 ft 428 kts 136°
2026-04-30 21:12 52.97120 -3.02702 39168 ft 428 kts 137°
2026-04-30 21:13 52.92456 -2.96623 39176 ft 423 kts 152°
2026-04-30 21:13 52.87044 -2.92981 39180 ft 420 kts 167°
2026-04-30 21:14 52.81260 -2.91938 39178 ft 419 kts 182°
2026-04-30 21:14 52.77418 -2.92681 39174 ft 420 kts 188°